Location: Wells
(51.2093°N, 2.6446°W)
Time: 07:59:01
(UTC+01:00)

SO-50 - Pass Details

Date: 23 March 2026
Orbit: 567 x 673 km, 64.6° (Epoch: 17 April)

Event Time Altitude Azimuth Distance (km) Brightness Sun altitude
Rises 22:21:32 0° 317° (NW) 3,028 ? -32.0°
Reaches altitude 10° 22:24:05 10° 328° (NNW) 2,115 ? -32.3°
Enters shadow 22:27:11 28° 3° (N) 1,269 ? -32.5°
